User: anonymous   Login
Location: Unspecified
(0.0000°N, 0.0000°E)
Time: 07:04:00
(UTC+00:00)
Language:

CASSIOPE - Orbit

View from above orbital plane
View from above orbital plane
View from above satellite
View from above satellite

Ground track
Ground track

The orbit data is extracted from the following two-line orbital elements,

1 39265U 13055A   22225.94218706  .00008241  00000-0  21699-3 0  9994
2 39265  80.9635 206.3307 0619909 147.6048 216.4841 14.39490312460601
Epoch (UTC): 13 August 2022 22:36:44
Eccentricity: 0.0619909
inclination: 80.9635°
perigee height: 317 km
apogee height: 1202 km
right ascension of ascending node: 206.3307°
argument of perigee: 147.6048°
revolutions per day: 14.39490312
mean anomaly at epoch: 216.4841°
orbit number at epoch: 46060

The dashed part of the orbit path shows where the satellite is in the earth's shadow,  

DLR